Miscellaneous Local Product
Issued by NWS Hastings, NE

Home | Current Version | Previous Version | Graphics & Text | Print | Product List | Glossary On
Versions: 1 2 3 4 5 6 7 8 9 10 11 12 13 14 15 16 17 18 19 20 21 22 23 24 25 26 27 28 29 30 31 32 33 34 35 36 37 38 39 40 41 42 43 44 45 46 47 48 49 50
293
AXUS43 KGID 291102
MISGRI

GID CWA HOURLY WEATHER ROUNDUP
NATIONAL WEATHER SERVICE HASTINGS NE
600 AM CDT THU SEP 29 2016

NOTE: "FAIR" INDICATES FEW OR NO CLOUDS BELOW 12,000 FEET WITH NO
SIGNIFICANT WEATHER AND/OR OBSTRUCTIONS TO VISIBILITY.

...SOUTH CENTRAL NEBRASKA...

CITY           SKY/WX    TMP DP  RH WIND       PRES   REMARKS
GRAND ISLAND   CLEAR     38  36  92 W8        30.42R WCI  32
HASTINGS       CLEAR     40  37  89 CALM      30.42R
KEARNEY        CLOUDY    43  36  75 NW7       30.42R
ORD            CLOUDY    36  33  89 CALM      30.42R
YORK           CLOUDY    41  41 100 CALM      30.41R
AURORA         CLOUDY    40  40  99 N5        30.41R
LEXINGTON      CLOUDY    38  36  92 CALM      30.42R
HOLDREGE       CLOUDY    38  37  94 CALM      30.42R
HEBRON         CLOUDY    42  41  96 CALM      30.40R

...NEBRASKA PANHANDLE...

CITY           SKY/WX    TMP DP  RH WIND       PRES   REMARKS
CHADRON        CLEAR     59  34  39 S10       30.33R
ALLIANCE       CLEAR     40  36  86 SE7       30.36S
SCOTTSBLUFF    CLEAR     47  38  71 E8        30.35S
SIDNEY         CLEAR     46  39  76 S8        30.38S

...WESTERN AND NORTH CENTRAL NEBRASKA...

CITY           SKY/WX    TMP DP  RH WIND       PRES   REMARKS
VALENTINE      CLEAR     38  36  92 E3        30.40S
AINSWORTH      CLOUDY    37  37 100 S7        30.42R WCI  32
ONEILL         FOG       38  37  94 CALM      30.42S VSB 1/2
BROKEN BOW     CLEAR     34  34 100 CALM      30.42R
IMPERIAL       CLOUDY    42  36  79 SE5       30.40R
NORTH PLATTE   CLOUDY    36  34  92 E5        30.42R WCI  32
MCCOOK         CLOUDY    39  35  86 E3        30.41R

...EASTERN NEBRASKA...

CITY           SKY/WX    TMP DP  RH WIND       PRES   REMARKS
NORFOLK        CLOUDY    39  37  92 CALM      30.41R
SO SIOUX CITY  CLEAR     43  41  93 NW5       30.42R
TEKAMAH        CLEAR     43  41  93 N6        30.40R
COLUMBUS       CLOUDY    39  30  70 NE3       30.41S
ALBION         CLOUDY    37  37  97 CALM      30.42R
OMAHA EPPLEY   CLEAR     46  42  86 N9        30.39R
MILLARD        CLEAR     47  45  91 W5        30.39R
LINCOLN        CLEAR     44  42  93 CALM      30.41R
NEBRASKA CITY  CLEAR     47  46  97 N6        30.38R
BEATRICE       CLEAR     43  42  97 W6        30.38R
FALLS CITY     CLEAR     47  45  93 NW7       30.35R

...NORTHERN KANSAS...

CITY           SKY/WX    TMP DP  RH WIND       PRES   REMARKS
GOODLAND       CLEAR     43  38  82 S7        30.40R
HILL CITY      CLOUDY    41  39  93 W3        30.41R
NORTON         SUNNY     39  32  75 CALM      30.40S
PHILLIPSBURG   CLEAR     41  41 100 NW6       30.42R
SMITH CENTER   CLEAR     37  37 100 CALM      30.42R
HAYS           CLOUDY    45  34  65 NW5       30.40R
RUSSELL        CLOUDY    44  42  93 NW5       30.39R
CONCORDIA      CLOUDY    46  45  96 CALM      30.39R
SALINA         CLEAR     47  43  86 NW7       30.38R
TOPEKA         CLEAR     50  46  86 W3        30.34R



USA.gov is the U.S. government's official web portal to all federal, state and local government web resources and services.